Regional Weather Roundup
Issued by NWS Charleston, WV

Home | Current Version | Previous Version | Text Only | Print | Product List | Glossary Off
Versions: 1 2 3 4 5 6 7 8 9 10 11 12 13 14 15 16 17 18 19 20 21 22 23 24 25 26 27 28 29 30 31 32 33 34 35 36 37 38 39 40 41 42 43 44 45 46 47 48 49 50

000
ASUS41 KRLX 061410
RWRRLX
West Virginia Regional Weather Roundup
National Weather Service Charleston WV
900 AM EST SAT FEB 06 2016

Note: "fair" indicates few or no clouds below 12,000 feet with no
significant weather and/or obstructions to visibility.

WVZ003-061500-
Northern Panhandle of West Virginia

CITY           SKY/WX    TMP DP  RH WIND       PRES   REMARKS
WHEELING         N/A     31  16  54 S9        30.31R
$$

WVZ009-061500-
Northwest West Virginia

CITY           SKY/WX    TMP DP  RH WIND       PRES   REMARKS
PARKERSBURG      N/A     31  17  56 S5        30.37S
$$

WVZ006-061500-
Western West Virginia

CITY           SKY/WX    TMP DP  RH WIND       PRES   REMARKS
HUNTINGTON       N/A     32  18  56 S8        30.36S
$$

WVZ015-061500-
West Central West Virginia

CITY           SKY/WX    TMP DP  RH WIND       PRES   REMARKS
CHARLESTON     PTSUNNY   28  21  75 CALM      30.37R
$$

WVZ022-031-061500-
North Central West Virginia

CITY           SKY/WX    TMP DP  RH WIND       PRES   REMARKS
CLARKSBURG       N/A     31  18  58 CALM      30.34S
MORGANTOWN       N/A     31  15  52 S3        30.34S
$$

WVZ025-035-042-045-061500-
Southern West Virginia

CITY           SKY/WX    TMP DP  RH WIND       PRES   REMARKS
BECKLEY          N/A     30  14  51 S5        30.33R
LOGAN            N/A     32  16  51 S3        30.35S
BLUEFIELD        N/A     28  13  53 SW6       30.33R
LEWISBURG        N/A     26  21  83 CALM      30.36R
$$

WVZ047-061500-
Northern Mountains of West Virginia

CITY           SKY/WX    TMP DP  RH WIND       PRES   REMARKS
ELKINS           N/A     24  18  77 CALM      30.34S
$$

WVZ052-061500-
Eastern Panhandle of West Virginia

CITY           SKY/WX    TMP DP  RH WIND       PRES   REMARKS
MARTINSBURG      N/A     29  20  69 S5        30.41F
PETERSBURG       N/A     25  21  86 CALM      30.40F
$$



USA.gov is the U.S. government's official web portal to all federal, state and local government web resources and services.